Hourly Weather Kizilovo

Today, 29 July, Thursday

Time Temperature Precipitation Wind Pressure Humidity
00:00 +21°C° 0 mm 1 mps 738 mmHg 77%
01:00 +21°C° 0 mm 1 mps 738 mmHg 79%
02:00 +20°C° 0 mm 1 mps 738 mmHg 81%
03:00 +20°C° 0 mm 1 mps 738 mmHg 83%
04:00 +20°C° 0 mm 1 mps 738 mmHg 84%
05:00 +18°C° 0 mm 2 mps 738 mmHg 86%
06:00 +21°C° 0.1 mm 1 mps 738 mmHg 82%
07:00 +22°C° 0.1 mm 1 mps 738 mmHg 79%
08:00 +21°C° 0 mm 0 mps 737 mmHg 74%
09:00 +24°C° 0.3 mm 1 mps 737 mmHg 73%
10:00 +25°C° 0.3 mm 2 mps 737 mmHg 72%
11:00 +25°C° 0.3 mm 2 mps 737 mmHg 70%
12:00 +24°C° 1.7 mm 2 mps 737 mmHg 77%
13:00 +23°C° 1.7 mm 2 mps 737 mmHg 84%
14:00 +21°C° 1.7 mm 2 mps 737 mmHg 91%
15:00 +21°C° 0.3 mm 3 mps 737 mmHg 87%
16:00 +22°C° 0.3 mm 3 mps 736 mmHg 83%
17:00 +23°C° 0.3 mm 4 mps 736 mmHg 78%
18:00 +22°C° 0.2 mm 3 mps 736 mmHg 81%
19:00 +21°C° 0.2 mm 3 mps 736 mmHg 85%
20:00 +20°C° 0.2 mm 2 mps 736 mmHg 88%
21:00 +19°C° 0 mm 2 mps 737 mmHg 87%
22:00 +19°C° 0 mm 2 mps 737 mmHg 87%
23:00 +18°C° 0 mm 2 mps 737 mmHg 87%

Tomorrow, 30 July, Friday

Time Temperature Precipitation Wind Pressure Humidity
00:00 +18°C° 0 mm 2 mps 737 mmHg 87%
01:00 +18°C° 0 mm 2 mps 737 mmHg 88%
02:00 +18°C° 0 mm 2 mps 737 mmHg 88%
03:00 +17°C° 0 mm 2 mps 737 mmHg 89%
04:00 +16°C° 0 mm 2 mps 737 mmHg 91%
05:00 +16°C° 0 mm 2 mps 737 mmHg 92%
06:00 +17°C° 0 mm 3 mps 737 mmHg 87%
07:00 +18°C° 0 mm 4 mps 737 mmHg 83%
08:00 +19°C° 0 mm 5 mps 737 mmHg 78%
09:00 +20°C° 0 mm 5 mps 737 mmHg 68%
10:00 +21°C° 0 mm 6 mps 737 mmHg 59%
11:00 +22°C° 0 mm 6 mps 737 mmHg 49%
12:00 +23°C° 0 mm 6 mps 737 mmHg 48%
13:00 +23°C° 0 mm 6 mps 737 mmHg 47%
14:00 +23°C° 0 mm 6 mps 737 mmHg 47%
15:00 +23°C° 0 mm 6 mps 736 mmHg 51%
16:00 +22°C° 0 mm 6 mps 736 mmHg 55%
17:00 +21°C° 0 mm 5 mps 736 mmHg 59%
18:00 +20°C° 0 mm 5 mps 736 mmHg 62%
19:00 +20°C° 0 mm 4 mps 736 mmHg 66%
20:00 +19°C° 0 mm 4 mps 735 mmHg 69%
21:00 +17°C° 0 mm 4 mps 735 mmHg 74%
22:00 +16°C° 0 mm 3 mps 735 mmHg 79%
23:00 +14°C° 0 mm 3 mps 735 mmHg 84%

Day after tomorrow, 31 July, Saturday

Time Temperature Precipitation Wind Pressure Humidity
00:00 +14°C° 0 mm 3 mps 735 mmHg 84%
01:00 +14°C° 0 mm 3 mps 735 mmHg 84%
02:00 +13°C° 0 mm 3 mps 735 mmHg 84%
03:00 +13°C° 0 mm 3 mps 736 mmHg 84%
04:00 +13°C° 0 mm 3 mps 736 mmHg 85%
05:00 +12°C° 0 mm 3 mps 736 mmHg 86%
06:00 +14°C° 0 mm 3 mps 736 mmHg 79%
07:00 +17°C° 0 mm 4 mps 736 mmHg 72%
08:00 +19°C° 0 mm 4 mps 736 mmHg 65%
09:00 +20°C° 0 mm 5 mps 736 mmHg 60%
10:00 +22°C° 0 mm 5 mps 737 mmHg 56%
11:00 +23°C° 0 mm 5 mps 737 mmHg 52%
12:00 +25°C° 0 mm 5 mps 737 mmHg 50%
13:00 +25°C° 0 mm 5 mps 737 mmHg 49%
14:00 +26°C° 0 mm 5 mps 737 mmHg 48%
15:00 +26°C° 0 mm 4 mps 736 mmHg 50%
16:00 +26°C° 0 mm 4 mps 736 mmHg 52%
17:00 +26°C° 0 mm 3 mps 736 mmHg 55%
18:00 +25°C° 0 mm 2 mps 736 mmHg 60%
19:00 +23°C° 0 mm 2 mps 736 mmHg 64%
20:00 +22°C° 0 mm 1 mps 735 mmHg 69%
21:00 +21°C° 0 mm 2 mps 735 mmHg 70%
22:00 +20°C° 0 mm 2 mps 735 mmHg 72%
23:00 +20°C° 0 mm 3 mps 736 mmHg 73%

1 August, Sunday

Time Temperature Precipitation Wind Pressure Humidity
00:00 +19°C° 0.3 mm 3 mps 735 mmHg 80%
01:00 +18°C° 0.3 mm 2 mps 735 mmHg 87%
02:00 +17°C° 0.3 mm 2 mps 735 mmHg 94%
03:00 +17°C° 0.1 mm 2 mps 735 mmHg 95%
04:00 +17°C° 0.1 mm 2 mps 735 mmHg 96%
05:00 +17°C° 0.1 mm 3 mps 735 mmHg 97%
06:00 +18°C° 0 mm 3 mps 735 mmHg 91%
07:00 +19°C° 0 mm 4 mps 736 mmHg 86%
08:00 +19°C° 0 mm 5 mps 736 mmHg 80%
09:00 +21°C° 0 mm 5 mps 736 mmHg 71%
10:00 +22°C° 0 mm 5 mps 736 mmHg 63%
11:00 +23°C° 0 mm 5 mps 737 mmHg 54%
12:00 +23°C° 0 mm 5 mps 737 mmHg 53%
13:00 +25°C° 0 mm 5 mps 737 mmHg 51%
14:00 +25°C° 0 mm 5 mps 737 mmHg 50%
15:00 +25°C° 0 mm 5 mps 737 mmHg 52%
16:00 +25°C° 0 mm 5 mps 737 mmHg 54%
17:00 +25°C° 0 mm 5 mps 737 mmHg 57%
18:00 +22°C° 0 mm 4 mps 737 mmHg 61%
19:00 +21°C° 0 mm 3 mps 736 mmHg 65%
20:00 +20°C° 0 mm 1 mps 736 mmHg 69%
21:00 +20°C° 0 mm 1 mps 736 mmHg 70%
22:00 +20°C° 0 mm 1 mps 736 mmHg 71%
23:00 +20°C° 0 mm 1 mps 736 mmHg 71%

2 August, Monday

Time Temperature Precipitation Wind Pressure Humidity
00:00 +19°C° 0.4 mm 1 mps 736 mmHg 76%
01:00 +18°C° 0.4 mm 1 mps 736 mmHg 82%
02:00 +18°C° 0.4 mm 1 mps 736 mmHg 87%
03:00 +18°C° 1.7 mm 1 mps 735 mmHg 90%
04:00 +16°C° 1.7 mm 2 mps 735 mmHg 93%
05:00 +16°C° 1.7 mm 2 mps 735 mmHg 97%
06:00 +16°C° 3.1 mm 2 mps 734 mmHg 97%
07:00 +16°C° 3.1 mm 2 mps 734 mmHg 98%
08:00 +16°C° 3.1 mm 3 mps 734 mmHg 98%
09:00 +16°C° 2.2 mm 3 mps 734 mmHg 98%
10:00 +16°C° 2.2 mm 3 mps 734 mmHg 98%
11:00 +16°C° 2.2 mm 3 mps 734 mmHg 98%
12:00 +16°C° 1.3 mm 3 mps 734 mmHg 97%
13:00 +15°C° 1.3 mm 4 mps 734 mmHg 97%
14:00 +15°C° 1.3 mm 5 mps 734 mmHg 97%
15:00 +14°C° 0.5 mm 5 mps 734 mmHg 96%
16:00 +14°C° 0.5 mm 4 mps 735 mmHg 95%
17:00 +13°C° 0.5 mm 4 mps 735 mmHg 95%
18:00 +13°C° 0.2 mm 4 mps 735 mmHg 94%
19:00 +13°C° 0.2 mm 3 mps 735 mmHg 94%
20:00 +13°C° 0.2 mm 3 mps 736 mmHg 94%
21:00 +13°C° 0.2 mm 3 mps 736 mmHg 95%
22:00 +13°C° 0.2 mm 3 mps 736 mmHg 95%
23:00 +13°C° 0.2 mm 3 mps 736 mmHg 95%

3 August, Tuesday

Time Temperature Precipitation Wind Pressure Humidity
00:00 +13°C° 0.2 mm 3 mps 736 mmHg 96%
01:00 +13°C° 0.2 mm 3 mps 737 mmHg 96%
02:00 +13°C° 0.2 mm 4 mps 737 mmHg 96%
03:00 +12°C° 0 mm 4 mps 737 mmHg 96%
04:00 +12°C° 0 mm 3 mps 737 mmHg 96%
05:00 +12°C° 0 mm 3 mps 737 mmHg 96%
06:00 +13°C° 0 mm 4 mps 738 mmHg 93%
07:00 +13°C° 0 mm 4 mps 738 mmHg 90%
08:00 +14°C° 0 mm 5 mps 739 mmHg 88%
09:00 +15°C° 0 mm 5 mps 739 mmHg 79%
10:00 +16°C° 0 mm 5 mps 739 mmHg 70%
11:00 +19°C° 0 mm 5 mps 740 mmHg 62%
12:00 +19°C° 0 mm 5 mps 740 mmHg 59%
13:00 +20°C° 0 mm 4 mps 740 mmHg 57%
14:00 +20°C° 0 mm 4 mps 740 mmHg 54%
15:00 +20°C° 0.1 mm 4 mps 740 mmHg 57%
16:00 +20°C° 0.1 mm 3 mps 740 mmHg 60%
17:00 +20°C° 0.1 mm 3 mps 740 mmHg 62%
18:00 +18°C° 0.2 mm 2 mps 740 mmHg 69%
19:00 +17°C° 0.2 mm 2 mps 740 mmHg 75%
20:00 +15°C° 0.2 mm 1 mps 740 mmHg 81%
21:00 +15°C° 0 mm 1 mps 740 mmHg 83%
22:00 +14°C° 0 mm 1 mps 741 mmHg 85%
23:00 +14°C° 0 mm 1 mps 741 mmHg 86%
Show more